User: anonymous   Login
Location: St. Louis
(38.6270°N, 90.1994°W)
Time: 10:56:59
(UTC-06:00)
Language:

A-11 Canister half - Orbit

View from above orbital plane
View from above orbital plane
View from above satellite
View from above satellite

Ground track
Ground track

The orbit data is extracted from the following two-line orbital elements,

1 00051U 60009C   21339.68842354 -.00000124  00000-0 -38154-3 0  9992
2 00051  47.2111 128.4435 0104912 317.4989  41.7713 12.18273053729462
Epoch (UTC): 05 December 2021 16:31:19
Eccentricity: 0.0104912
inclination: 47.2111°
perigee height: 1516 km
apogee height: 1684 km
right ascension of ascending node: 128.4435°
argument of perigee: 317.4989°
revolutions per day: 12.18273053
mean anomaly at epoch: 41.7713°
orbit number at epoch: 72946

The dashed part of the orbit path shows where the satellite is in the earth's shadow,  

DLR